FW9386 Weather Reports


Display with metric or nautical units.
time (UTC)temp
F
wind
direction
speed
MPH
gust
MPH
rain 1hr
in
rain 24hr
in
rain mn
in
humidity
%
barometer
mb
20260510005555 76 165 4.0 10.0 0.00 0.01 0.01 88 1010.7
20260510005054 76 101 4.0 10.0 0.00 0.01 0.01 88 1010.8
20260510004556 76 129 3.0 10.0 0.00 0.01 0.01 88 1010.8
20260510004055 76 116 4.0 10.0 0.00 0.01 0.01 88 1010.6
20260510003555 76 51 4.0 9.0 0.00 0.01 0.01 88 1010.4
20260510003055 76 73 5.0 11.0 0.00 0.01 0.01 88 1010.1
20260510002556 76 105 6.0 12.0 0.00 0.01 0.01 88 1009.7
20260510002054 76 109 6.0 12.0 0.00 0.01 0.01 88 1009.7
20260510001553 76 116 5.0 11.0 0.00 0.01 0.01 87 1009.8
20260510001055 76 120 5.0 11.0 0.00 0.01 0.01 87 1009.8
20260510000554 76 105 6.0 11.0 0.00 0.01 0.01 86 1009.7
20260510000100 77 119 4.0 11.0 0.00 0.01 0.01 86 1009.6
20260509235557 77 95 4.0 13.0 0.00 0.01 0.01 86 1009.4
20260509235054 77 116 6.0 13.0 0.00 0.01 0.01 85 1009.5
20260509234553 77 82 7.0 13.0 0.00 0.01 0.01 85 1009.4
20260509234055 78 157 5.0 13.0 0.00 0.01 0.01 84 1009.5
20260509233554 77 105 5.0 14.0 0.00 0.01 0.01 83 1009.5
20260509233056 78 116 6.0 14.0 0.00 0.01 0.01 84 1009.5
20260509232555 78 173 7.0 14.0 0.00 0.01 0.01 83 1009.4
20260509232055 78 138 5.0 13.0 0.00 0.01 0.01 82 1009.6
20260509231555 79 114 4.0 13.0 0.00 0.01 0.01 83 1009.5
20260509231054 79 125 6.0 13.0 0.00 0.01 0.01 83 1009.5
20260509230557 79 125 5.0 11.0 0.00 0.01 0.01 83 1009.4
20260509230058 79 111 4.0 11.0 0.00 0.01 0.01 84 1009.4
20260509225555 79 63 3.0 8.0 0.00 0.01 0.01 83 1009.3
20260509225054 79 97 3.0 7.0 0.00 0.01 0.01 83 1009.2
20260509224553 79 113 3.0 9.0 0.00 0.01 0.01 83 1009.4
20260509224054 79 101 3.0 9.0 0.00 0.01 0.01 82 1009.3
20260509223558 79 45 1.0 5.0 0.00 0.01 0.01 82 1009.3
20260509223059 80 132 2.0 10.0 0.00 0.01 0.01 82 1009.3
20260509222555 80 87 2.0 10.0 0.00 0.01 0.01 81 1009.3
20260509222053 80 54 4.0 13.0 0.00 0.01 0.01 80 1009.1
20260509221556 81 63 3.0 13.0 0.00 0.01 0.01 79 1009.1
20260509221055 81 80 4.0 13.0 0.00 0.01 0.01 79 1008.9
20260509220555 81 95 5.0 11.0 0.00 0.01 0.01 78 1008.7
20260509220055 81 139 5.0 11.0 0.00 0.01 0.01 79 1008.7
20260509215554 82 95 4.0 10.0 0.00 0.01 0.01 79 1008.5
20260509215055 82 117 5.0 11.0 0.00 0.01 0.01 78 1008.3
20260509214615 82 111 4.0 11.0 0.00 0.01 0.01 79 1008.2
20260509214055 82 131 4.0 11.0 0.00 0.01 0.01 79 1008.2
20260509213555 82 123 3.0 9.0 0.00 0.01 0.01 79 1008.2
20260509213057 82 71 3.0 10.0 0.00 0.01 0.01 78 1008.3
20260509212555 83 87 4.0 11.0 0.00 0.01 0.01 78 1008.2
20260509212054 84 83 5.0 11.0 0.00 0.01 0.01 75 1008.3
20260509211554 86 71 2.0 6.0 0.00 0.01 0.01 74 1008.3
20260509211058 86 126 3.0 6.0 0.00 0.01 0.01 75 1008.2
20260509210555 85 119 1.0 3.0 0.00 0.01 0.01 75 1008.2
20260509210109 86 101 1.0 4.0 0.00 0.01 0.01 74 1008.3
20260509205554 86 127 1.0 4.0 0.00 0.01 0.01 73 1008.4
20260509205054 87 126 1.0 3.0 0.00 0.01 0.01 74 1008.2
20260509204558 86 120 1.0 3.0 0.00 0.01 0.01 74 1008.2
20260509204054 86 121 1.0 3.0 0.00 0.01 0.01 76 1008.3
20260509203558 86 121 1.0 4.0 0.00 0.01 0.01 78 1008.5
20260509203110 85 148 1.0 4.0 0.00 0.01 0.01 76 1008.5
20260509202555 84 114 1.0 3.0 0.00 0.01 0.01 78 1008.5
20260509202054 84 127 1.0 3.0 0.00 0.01 0.01 77 1008.5
20260509201557 84 126 1.0 3.0 0.00 0.01 0.01 78 1008.6
20260509201055 84 128 0.0 2.0 0.00 0.01 0.01 77 1008.6
20260509200558 84 135 0.0 1.0 0.00 0.01 0.01 76 1008.7
20260509200057 84 178 0.0 2.0 0.00 0.01 0.01 76 1008.8
20260509195554 84 204 0.0 2.0 0.00 0.01 0.01 77 1008.7
20260509195056 84 0 1.0 3.0 0.00 0.01 0.01 76 1009.0
20260509194558 84 0 0.0 3.0 0.00 0.01 0.01 77 1008.9
20260509194054 84 116 1.0 3.0 0.00 0.01 0.01 78 1008.8
20260509193555 84 194 1.0 3.0 0.00 0.01 0.01 77 1009.0
20260509193111 84 153 0.0 2.0 0.00 0.01 0.01 76 1009.2
20260509192557 84 112 1.0 2.0 0.00 0.01 0.01 75 1009.2
20260509192054 84 133 1.0 2.0 0.00 0.01 0.01 75 1009.1
20260509191604 84 0 0.0 2.0 0.00 0.01 0.01 75 1009.2
20260509191057 83 214 0.0 2.0 0.00 0.01 0.01 81 1009.4
20260509190557 83 145 0.0 3.0 0.00 0.01 0.01 81 1009.4
20260509190058 82 194 0.0 3.0 0.00 0.01 0.01 83 1009.5
20260509185556 82 201 0.0 2.0 0.00 0.01 0.01 83 1009.4
20260509185055 82 171 1.0 2.0 0.01 0.01 0.01 84 1009.5
20260509184601 82 119 1.0 2.0 0.01 0.01 0.01 82 1009.6
20260509184054 82 0 0.0 2.0 0.01 0.01 0.01 84 1009.6
20260509183555 82 162 0.0 3.0 0.01 0.01 0.01 82 1009.5
20260509183100 82 0 0.0 4.0 0.01 0.01 0.01 82 1009.4
20260509182557 82 119 2.0 4.0 0.01 0.01 0.01 81 1009.6
20260509182054 84 166 0.0 2.0 0.01 0.01 0.01 80 1009.7
20260509181554 84 267 0.0 1.0 0.01 0.01 0.01 80 1009.8
20260509181055 83 273 0.0 1.0 0.01 0.01 0.01 79 1009.9
20260509180554 84 197 0.0 1.0 0.01 0.01 0.01 79 1009.9
20260509180057 84 0 0.0 1.0 0.01 0.01 0.01 79 1010.1
20260509175554 84 0 0.0 1.0 0.01 0.02 0.01 78 1010.2
20260509175054 84 0 0.0 1.0 0.00 0.01 0.00 79 1010.2
20260509174624 84 0 0.0 1.0 0.00 0.01 0.00 78 1010.2
20260509174056 84 192 0.0 1.0 0.00 0.01 0.00 78 1010.3
20260509173554 83 126 0.0 1.0 0.00 0.01 0.00 80 1010.4
20260509173102 83 127 0.0 2.0 0.00 0.01 0.00 79 1010.4
20260509172557 83 0 0.0 2.0 0.00 0.01 0.00 79 1010.2
20260509172055 83 131 0.0 2.0 0.00 0.01 0.00 79 1010.4
20260509171600 83 186 0.0 2.0 0.00 0.01 0.00 79 1010.7
20260509171054 83 112 0.0 3.0 0.00 0.01 0.00 79 1010.6
20260509170554 84 116 0.0 3.0 0.00 0.01 0.00 76 1010.6
20260509170109 84 216 1.0 3.0 0.00 0.01 0.00 77 1010.7
20260509165556 84 143 0.0 2.0 0.00 0.02 0.00 80 1010.6
20260509165058 82 161 0.0 4.0 0.00 0.02 0.00 80 1010.5
20260509164600 82 147 1.0 4.0 0.00 0.02 0.00 80 1010.6
20260509164058 82 140 1.0 4.0 0.00 0.02 0.00 79 1010.4
20260509163558 83 0 0.0 2.0 0.00 0.02 0.00 80 1010.4
20260509163101 82 0 0.0 2.0 0.00 0.02 0.00 81 1010.4
20260509162556 82 308 0.0 2.0 0.00 0.02 0.00 82 1010.3
20260509162057 81 128 1.0 2.0 0.00 0.02 0.00 83 1010.6
20260509161602 81 0 0.0 1.0 0.00 0.02 0.00 83 1010.6
20260509161059 80 0 0.0 1.0 0.00 0.02 0.00 85 1010.4
20260509160556 80 179 0.0 2.0 0.00 0.02 0.00 84 1010.3
20260509160058 80 212 0.0 4.0 0.00 0.02 0.00 86 1010.4
20260509155557 80 185 0.0 4.0 0.00 0.02 0.00 86 1010.4
20260509155055 79 161 1.0 4.0 0.00 0.02 0.00 86 1010.4
20260509154556 79 147 1.0 3.0 0.00 0.02 0.00 86 1010.4
20260509154055 80 221 0.0 3.0 0.00 0.02 0.00 87 1010.5
20260509153555 79 0 0.0 3.0 0.00 0.02 0.00 87 1010.6
20260509153110 79 154 0.0 3.0 0.00 0.02 0.00 87 1010.8
20260509152556 79 214 1.0 2.0 0.00 0.02 0.00 86 1010.8
20260509152056 79 0 0.0 1.0 0.00 0.02 0.00 86 1010.9
20260509151556 80 132 0.0 2.0 0.00 0.02 0.00 86 1011.1
20260509151101 80 172 0.0 2.0 0.00 0.02 0.00 86 1011.1
20260509150556 79 184 0.0 2.0 0.00 0.02 0.00 87 1010.9
20260509150054 79 249 1.0 2.0 0.00 0.02 0.00 87 1010.7
20260509145556 79 0 0.0 2.0 0.00 0.02 0.00 86 1010.6
20260509145055 79 0 0.0 2.0 0.00 0.02 0.00 87 1010.7
20260509144554 79 0 0.0 1.0 0.00 0.02 0.00 87 1010.7
20260509144055 79 230 0.0 3.0 0.00 0.02 0.00 88 1010.8
20260509143555 79 0 0.0 3.0 0.00 0.02 0.00 89 1010.8
20260509143055 78 121 1.0 3.0 0.00 0.02 0.00 89 1010.4
20260509142558 78 143 0.0 2.0 0.00 0.02 0.00 90 1010.4
20260509142056 78 128 1.0 3.0 0.00 0.02 0.00 91 1010.3
20260509141554 78 167 1.0 3.0 0.00 0.02 0.00 92 1010.4
20260509141100 78 93 0.0 2.0 0.00 0.02 0.00 93 1010.3
20260509140556 77 242 0.0 2.0 0.00 0.02 0.00 94 1010.1
20260509140056 77 0 0.0 1.0 0.00 0.02 0.00 94 1010.0
20260509135556 77 0 0.0 0.0 0.00 0.02 0.00 95 1010.1
20260509135056 76 0 0.0 0.0 0.00 0.02 0.00 95 1010.2
20260509134557 76 0 0.0 0.0 0.00 0.02 0.00 95 1010.3
20260509134054 76 0 0.0 0.0 0.00 0.02 0.00 95 1010.4
20260509133558 76 0 0.0 0.0 0.00 0.02 0.00 95 1010.5
20260509133053 76 0 0.0 0.0 0.00 0.02 0.00 96 1010.4
20260509132555 76 0 0.0 0.0 0.00 0.02 0.00 95 1010.3
20260509132058 76 0 0.0 0.0 0.00 0.02 0.00 96 1010.3
20260509131557 75 0 0.0 0.0 0.00 0.02 0.00 96 1010.3
20260509131054 75 0 0.0 0.0 0.00 0.02 0.00 96 1010.3
20260509130556 75 0 0.0 0.0 0.00 0.02 0.00 96 1010.3
20260509130105 75 0 0.0 0.0 0.00 0.02 0.00 96 1010.2
20260509125556 75 0 0.0 0.0 0.00 0.02 0.00 96 1010.3
20260509125055 75 0 0.0 0.0 0.00 0.02 0.00 96 1010.3
20260509124556 75 0 0.0 0.0 0.00 0.02 0.00 96 1010.3
20260509124058 75 0 0.0 0.0 0.00 0.02 0.00 96 1010.4
20260509123555 75 0 0.0 0.0 0.00 0.02 0.00 96 1010.4
20260509123053 74 0 0.0 0.0 0.00 0.02 0.00 96 1010.3
20260509122554 74 0 0.0 0.0 0.00 0.02 0.00 96 1010.2
20260509122054 74 0 0.0 0.0 0.00 0.02 0.00 96 1010.2
20260509121614 74 0 0.0 0.0 0.00 0.02 0.00 96 1010.4
20260509121055 74 0 0.0 0.0 0.00 0.02 0.00 96 1010.4
20260509120557 74 0 0.0 0.0 0.00 0.02 0.00 96 1010.1
20260509120055 74 0 0.0 0.0 0.00 0.02 0.00 96 1010.0
20260509115554 74 0 0.0 0.0 0.00 0.02 0.00 96 1010.0
20260509115054 74 0 0.0 0.0 0.00 0.02 0.00 96 1009.8
20260509114559 74 0 0.0 0.0 0.00 0.02 0.00 96 1010.0
20260509114054 74 0 0.0 0.0 0.00 0.02 0.00 96 1010.2
20260509113553 74 0 0.0 0.0 0.00 0.02 0.00 95 1010.5
20260509113059 74 0 0.0 0.0 0.00 0.02 0.00 95 1010.4
20260509112555 74 0 0.0 0.0 0.00 0.02 0.00 95 1010.2
20260509112055 74 0 0.0 0.0 0.00 0.02 0.00 95 1010.4
20260509111555 74 0 0.0 0.0 0.00 0.02 0.00 96 1010.3
20260509111054 74 0 0.0 0.0 0.00 0.02 0.00 96 1010.4
20260509110558 74 0 0.0 0.0 0.00 0.02 0.00 96 1010.4
20260509105554 74 0 0.0 0.0 0.00 0.02 0.00 95 1010.3
20260509105055 74 0 0.0 0.0 0.00 0.02 0.00 95 1010.2
20260509104555 74 0 0.0 0.0 0.00 0.02 0.00 95 1010.2
20260509104055 74 0 0.0 0.0 0.00 0.02 0.00 95 1010.2
20260509103556 74 0 0.0 0.0 0.00 0.02 0.00 95 1009.9
20260509103102 74 0 0.0 0.0 0.00 0.02 0.00 95 1009.6
20260509102554 74 0 0.0 1.0 0.00 0.02 0.00 95 1009.5
20260509102054 74 0 0.0 1.0 0.00 0.02 0.00 95 1009.3
20260509101607 74 0 0.0 1.0 0.00 0.02 0.00 95 1009.4
20260509101055 74 0 0.0 0.0 0.00 0.02 0.00 95 1009.3
20260509100555 74 0 0.0 1.0 0.00 0.02 0.00 95 1009.3
20260509100058 74 0 0.0 1.0 0.00 0.02 0.00 95 1009.1
20260509095554 74 176 0.0 3.0 0.00 0.02 0.00 95 1008.9
20260509095054 75 0 0.0 3.0 0.00 0.02 0.00 95 1009.1
20260509094609 75 180 0.0 2.0 0.00 0.02 0.00 95 1008.9
20260509094055 75 0 0.0 2.0 0.00 0.02 0.00 95 1008.9
20260509093557 75 146 1.0 2.0 0.00 0.02 0.00 95 1008.7
20260509093100 75 146 0.0 2.0 0.00 0.02 0.00 95 1008.9
20260509092555 75 0 0.0 2.0 0.00 0.02 0.00 95 1009.0
20260509092058 75 0 0.0 2.0 0.00 0.02 0.00 95 1009.0
20260509091607 75 0 0.0 3.0 0.00 0.02 0.00 95 1008.9
20260509091054 75 126 1.0 3.0 0.00 0.02 0.00 95 1009.1
20260509090557 75 114 0.0 0.0 0.00 0.02 0.00 95 1009.4
20260509085557 75 0 0.0 0.0 0.00 0.02 0.00 95 1009.5
20260509085054 75 0 0.0 0.0 0.00 0.02 0.00 95 1009.6
20260509084601 75 0 0.0 0.0 0.00 0.02 0.00 95 1009.6
20260509084054 75 0 0.0 0.0 0.00 0.02 0.00 95 1009.6
20260509083553 75 0 0.0 0.0 0.00 0.02 0.00 95 1009.5
20260509083102 75 0 0.0 0.0 0.00 0.02 0.00 95 1009.6
20260509082553 75 0 0.0 0.0 0.00 0.02 0.00 95 1009.7
20260509082055 75 0 0.0 0.0 0.00 0.02 0.00 95 1009.7
20260509081559 75 0 0.0 0.0 0.00 0.02 0.00 95 1009.9
20260509081051 75 0 0.0 0.0 0.00 0.02 0.00 95 1009.8
20260509080558 75 0 0.0 0.0 0.00 0.02 0.00 95 1009.8
20260509080100 75 0 0.0 0.0 0.00 0.02 0.00 94 1009.8
20260509075554 75 0 0.0 0.0 0.00 0.02 0.00 95 1010.1
20260509075054 75 0 0.0 0.0 0.00 0.02 0.00 94 1010.0
20260509074555 75 0 0.0 0.0 0.00 0.02 0.00 95 1009.9
20260509074056 75 0 0.0 1.0 0.00 0.02 0.00 95 1009.9
20260509073554 75 0 0.0 1.0 0.00 0.02 0.00 95 1009.8
20260509073055 75 142 0.0 2.0 0.00 0.02 0.00 94 1009.7
20260509072605 75 162 0.0 2.0 0.00 0.02 0.00 94 1009.7
20260509072053 75 181 0.0 3.0 0.00 0.02 0.00 94 1009.8
20260509071556 75 145 0.0 4.0 0.00 0.02 0.00 95 1009.8
20260509071054 75 131 1.0 4.0 0.00 0.02 0.00 95 1009.8
20260509070554 75 118 1.0 3.0 0.00 0.02 0.00 95 1009.6
20260509070057 75 137 1.0 4.0 0.00 0.02 0.00 95 1009.6
20260509065556 75 135 1.0 4.0 0.00 0.02 0.00 95 1009.4
20260509065054 75 126 2.0 4.0 0.00 0.02 0.00 95 1009.5
20260509064555 75 114 1.0 6.0 0.00 0.02 0.00 95 1009.7
20260509064054 75 106 2.0 6.0 0.00 0.02 0.00 95 1009.7
20260509063554 75 107 2.0 6.0 0.00 0.02 0.00 95 1009.8
20260509063100 75 147 2.0 4.0 0.00 0.02 0.00 95 1009.8
20260509062554 75 120 2.0 3.0 0.00 0.02 0.00 95 1009.8
20260509062054 75 126 1.0 4.0 0.00 0.02 0.00 95 1009.9
20260509061555 75 135 1.0 4.0 0.00 0.02 0.00 95 1010.2
20260509061054 75 118 1.0 5.0 0.00 0.02 0.00 95 1010.2
20260509060553 75 131 2.0 5.0 0.00 0.02 0.00 95 1010.3
20260509060106 75 133 2.0 4.0 0.00 0.02 0.00 94 1010.4
20260509055554 75 166 2.0 6.0 0.00 0.02 0.00 94 1010.3
20260509055055 75 133 2.0 6.0 0.00 0.02 0.00 94 1010.4
20260509054603 75 166 1.0 3.0 0.00 0.02 0.00 94 1010.4
20260509054055 75 134 2.0 3.0 0.00 0.02 0.00 94 1010.5
20260509053558 75 140 1.0 4.0 0.00 0.02 0.00 94 1010.6
20260509053119 75 128 1.0 4.0 0.00 0.02 0.00 94 1010.7
20260509052558 75 146 2.0 4.0 0.00 0.02 0.00 94 1010.6
20260509052055 75 121 1.0 5.0 0.00 0.02 0.00 94 1010.7
20260509051556 75 131 2.0 5.0 0.00 0.02 0.00 94 1010.5
20260509051054 75 121 1.0 4.0 0.00 0.02 0.00 94 1010.6
20260509050554 75 135 1.0 7.0 0.00 0.02 0.00 94 1010.6
20260509050057 75 109 2.0 7.0 0.00 0.02 0.00 94 1010.7
20260509045557 75 139 3.0 6.0 0.00 0.02 0.02 94 1010.8
20260509045054 75 102 0.0 4.0 0.00 0.02 0.02 94 1010.8
20260509044636 75 76 1.0 5.0 0.00 0.02 0.02 94 1010.6
20260509044054 75 159 2.0 5.0 0.00 0.02 0.02 94 1010.5
20260509043554 75 152 2.0 5.0 0.00 0.02 0.02 94 1010.6
20260509043138 75 111 1.0 5.0 0.00 0.02 0.02 94 1010.7
20260509042555 74 127 2.0 5.0 0.00 0.02 0.02 94 1010.6
20260509042116 74 124 2.0 4.0 0.00 0.02 0.02 93 1010.7
20260509041555 74 130 0.0 2.0 0.00 0.02 0.02 93 1010.8
20260509041054 74 130 0.0 3.0 0.00 0.02 0.02 93 1010.8
20260509040556 74 137 1.0 4.0 0.00 0.02 0.02 93 1010.8
20260509040054 74 145 1.0 4.0 0.00 0.02 0.02 93 1010.7
20260509035558 74 127 0.0 5.0 0.00 0.02 0.02 93 1010.6
20260509035054 74 124 2.0 5.0 0.00 0.02 0.02 93 1010.4
20260509034553 74 153 1.0 3.0 0.00 0.02 0.02 93 1010.4
20260509034055 74 120 0.0 3.0 0.00 0.02 0.02 93 1010.5
20260509033558 74 134 0.0 3.0 0.00 0.02 0.02 93 1010.6
20260509033054 74 121 0.0 2.0 0.00 0.02 0.02 93 1010.5
20260509032554 74 74 0.0 4.0 0.00 0.02 0.02 93 1010.1
20260509032053 74 80 1.0 5.0 0.00 0.02 0.02 93 1010.2
20260509031600 74 139 2.0 5.0 0.00 0.02 0.02 92 1010.2
20260509031054 74 124 2.0 4.0 0.00 0.02 0.02 92 1010.3
20260509030555 74 138 0.0 3.0 0.00 0.02 0.02 92 1010.6
20260509030110 74 0 1.0 4.0 0.00 0.02 0.02 92 1010.5
20260509025554 74 128 0.0 4.0 0.00 0.02 0.02 92 1010.4
20260509025056 74 132 1.0 3.0 0.00 0.02 0.02 92 1010.6
20260509024554 74 57 1.0 3.0 0.00 0.02 0.02 92 1010.6
20260509024054 74 0 1.0 3.0 0.00 0.02 0.02 92 1010.4
20260509023556 74 92 0.0 4.0 0.00 0.02 0.02 92 1010.2
20260509023058 74 81 1.0 4.0 0.00 0.02 0.02 92 1009.8
20260509022554 74 119 2.0 4.0 0.00 0.02 0.02 91 1010.1
20260509022058 74 120 1.0 4.0 0.00 0.02 0.02 91 1010.3
20260509021554 74 135 2.0 5.0 0.00 0.02 0.02 91 1010.3
20260509021056 74 121 2.0 5.0 0.00 0.02 0.02 91 1010.2
20260509020554 74 118 1.0 4.0 0.00 0.02 0.02 91 1010.1
20260509020105 74 130 1.0 4.0 0.00 0.02 0.02 91 1010.1
20260509015555 74 145 1.0 5.0 0.00 0.02 0.02 91 1009.9
20260509015055 74 67 1.0 5.0 0.00 0.02 0.02 91 1010.0
20260509014555 74 124 2.0 6.0 0.00 0.02 0.02 91 1009.7
20260509014054 74 98 2.0 6.0 0.00 0.02 0.02 91 1009.7
20260509013554 74 122 3.0 6.0 0.00 0.02 0.02 91 1009.8
20260509013059 74 130 3.0 5.0 0.00 0.02 0.02 91 1009.8
20260509012554 74 127 2.0 5.0 0.00 0.02 0.02 91 1010.0
20260509012054 74 132 0.0 3.0 0.00 0.02 0.02 91 1010.0
20260509011558 74 130 0.0 3.0 0.00 0.02 0.02 91 1010.0
20260509011055 74 0 0.0 5.0 0.00 0.02 0.02 91 1009.9
20260509010554 74 156 1.0 5.0 0.00 0.02 0.02 91 1009.6
20260509010057 74 99 1.0 5.0 0.00 0.02 0.02 91 1009.2